Time,TemperatureF,DewpointF,PressureIn,WindDirection,WindDirectionDegrees,WindSpeedMPH,WindSpeedGustMPH,Humidity,HourlyPrecipIn,Conditions,Clouds,dailyrainin,SoftwareType,DateUTC
2013-04-29 00:01:00,53.1,32.0,30.09,WSW,250,6.7,6.7,26,0.00,,,-99.99,wx200d/1.3,2013-04-29 04:01:00,
2013-04-29 00:02:00,53.1,32.0,30.09,West,261,5.8,5.8,26,0.00,,,-99.99,wx200d/1.3,2013-04-29 04:02:00,
2013-04-29 00:04:00,53.1,32.0,30.09,NW,323,7.4,7.4,26,0.00,,,-99.99,wx200d/1.3,2013-04-29 04:04:00,
2013-04-29 00:05:00,53.1,32.0,30.09,West,262,6.7,6.9,27,0.00,,,-99.99,wx200d/1.3,2013-04-29 04:05:00,
2013-04-29 00:07:00,53.1,32.0,30.09,WSW,257,5.4,5.4,27,0.00,,,-99.99,wx200d/1.3,2013-04-29 04:07:00,
2013-04-29 00:12:00,52.9,32.0,30.09,WNW,285,6.9,6.9,28,0.00,,,-99.99,wx200d/1.3,2013-04-29 04:12:00,
2013-04-29 00:17:00,52.9,32.0,30.09,West,273,7.8,7.8,29,0.00,,,-99.99,wx200d/1.3,2013-04-29 04:17:00,
2013-04-29 00:22:00,52.7,32.0,30.09,West,279,6.3,7.4,30,0.00,,,-99.99,wx200d/1.3,2013-04-29 04:22:00,
2013-04-29 00:27:00,52.7,32.0,30.09,West,270,6.7,6.7,32,0.00,,,-99.99,wx200d/1.3,2013-04-29 04:27:00,
2013-04-29 00:32:00,52.7,32.0,30.09,NW,307,6.7,6.7,36,0.00,,,-99.99,wx200d/1.3,2013-04-29 04:32:00,
2013-04-29 00:37:00,52.7,32.0,30.09,WNW,289,5.4,7.4,37,0.00,,,-99.99,wx200d/1.3,2013-04-29 04:37:00,
2013-04-29 00:42:00,52.5,32.0,30.09,SW,226,6.3,6.3,38,0.00,,,-99.99,wx200d/1.3,2013-04-29 04:42:00,
2013-04-29 00:47:00,52.3,32.0,30.09,West,279,5.8,8.7,39,0.00,,,-99.99,wx200d/1.3,2013-04-29 04:47:00,
2013-04-29 00:53:00,52.3,32.0,30.09,West,267,5.8,6.3,41,0.00,,,-99.99,wx200d/1.3,2013-04-29 04:53:00,
2013-04-29 00:58:00,52.3,32.0,30.09,West,278,4.9,5.4,42,0.00,,,-99.99,wx200d/1.3,2013-04-29 04:58:00,
2013-04-29 01:03:00,52.2,32.0,30.09,West,264,6.3,6.9,43,0.00,,,-99.99,wx200d/1.3,2013-04-29 05:03:00,
2013-04-29 01:08:00,52.0,32.0,30.09,West,263,6.7,6.7,45,0.00,,,-99.99,wx200d/1.3,2013-04-29 05:08:00,
2013-04-29 01:13:00,52.0,32.0,30.09,WSW,240,6.3,6.3,46,0.00,,,-99.99,wx200d/1.3,2013-04-29 05:13:00,
2013-04-29 01:18:00,52.0,32.0,30.09,West,262,5.8,6.7,46,0.00,,,-99.99,wx200d/1.3,2013-04-29 05:18:00,
2013-04-29 01:23:00,52.0,32.0,30.09,West,262,4.9,5.4,46,0.00,,,-99.99,wx200d/1.3,2013-04-29 05:23:00,
2013-04-29 01:28:00,52.0,32.0,30.09,West,273,4.5,4.9,47,0.00,,,-99.99,wx200d/1.3,2013-04-29 05:28:00,
2013-04-29 01:33:00,51.8,32.0,30.09,West,264,4.5,4.9,47,0.00,,,-99.99,wx200d/1.3,2013-04-29 05:33:00,
2013-04-29 01:38:00,52.0,32.0,30.09,SW,235,5.4,5.4,47,0.00,,,-99.99,wx200d/1.3,2013-04-29 05:38:00,
2013-04-29 01:44:00,51.6,32.0,30.09,WNW,286,4.9,4.9,48,0.00,,,-99.99,wx200d/1.3,2013-04-29 05:44:00,
2013-04-29 01:49:00,51.6,34.0,30.09,WSW,248,6.3,6.3,49,0.00,,,-99.99,wx200d/1.3,2013-04-29 05:49:00,
2013-04-29 01:54:00,51.6,34.0,30.09,WSW,245,3.6,0.0,50,0.00,,,-99.99,wx200d/1.3,2013-04-29 05:54:00,
2013-04-29 01:59:00,51.4,34.0,30.09,West,268,6.3,6.3,51,0.00,,,-99.99,wx200d/1.3,2013-04-29 05:59:00,
2013-04-29 02:04:00,51.4,36.0,30.09,WNW,284,4.5,4.5,52,0.00,,,-99.99,wx200d/1.3,2013-04-29 06:04:00,
2013-04-29 02:09:00,51.4,36.0,30.09,WNW,285,4.9,4.9,52,0.00,,,-99.99,wx200d/1.3,2013-04-29 06:09:00,
2013-04-29 02:14:00,51.3,36.0,30.09,WSW,248,4.9,4.9,53,0.00,,,-99.99,wx200d/1.3,2013-04-29 06:14:00,
2013-04-29 02:19:00,51.3,36.0,30.09,West,280,4.5,5.8,53,0.00,,,-99.99,wx200d/1.3,2013-04-29 06:19:00,
2013-04-29 02:24:00,51.3,36.0,30.09,WSW,252,2.7,4.5,54,0.00,,,-99.99,wx200d/1.3,2013-04-29 06:24:00,
2013-04-29 02:29:00,51.1,36.0,30.09,SW,222,4.0,0.0,54,0.00,,,-99.99,wx200d/1.3,2013-04-29 06:29:00,
2013-04-29 02:34:00,51.1,36.0,30.09,WSW,251,3.1,4.5,55,0.00,,,-99.99,wx200d/1.3,2013-04-29 06:34:00,
2013-04-29 02:39:00,51.1,36.0,30.06,West,264,4.5,4.5,55,0.00,,,-99.99,wx200d/1.3,2013-04-29 06:39:00,
2013-04-29 02:44:00,51.1,37.0,30.06,WSW,254,4.9,5.4,56,0.00,,,-99.99,wx200d/1.3,2013-04-29 06:44:00,
2013-04-29 02:49:00,51.3,37.0,30.06,WNW,289,5.4,5.4,56,0.00,,,-99.99,wx200d/1.3,2013-04-29 06:49:00,
2013-04-29 02:54:00,51.1,37.0,30.06,WSW,245,6.9,6.9,56,0.00,,,-99.99,wx200d/1.3,2013-04-29 06:54:00,
2013-04-29 02:59:00,51.1,37.0,30.06,West,281,5.4,5.4,57,0.00,,,-99.99,wx200d/1.3,2013-04-29 06:59:00,
2013-04-29 03:04:00,51.1,37.0,30.06,West,266,4.5,6.7,57,0.00,,,-99.99,wx200d/1.3,2013-04-29 07:04:00,
2013-04-29 03:09:00,51.1,37.0,30.06,West,272,5.4,6.3,57,0.00,,,-99.99,wx200d/1.3,2013-04-29 07:09:00,
2013-04-29 03:14:00,51.1,37.0,30.06,West,277,4.5,0.0,57,0.00,,,-99.99,wx200d/1.3,2013-04-29 07:14:00,
2013-04-29 03:19:00,51.1,37.0,30.06,WSW,251,5.4,5.8,57,0.00,,,-99.99,wx200d/1.3,2013-04-29 07:19:00,
2013-04-29 03:24:00,51.1,37.0,30.06,West,278,5.4,5.4,57,0.00,,,-99.99,wx200d/1.3,2013-04-29 07:24:00,
2013-04-29 03:29:00,50.9,37.0,30.06,West,259,4.5,4.5,58,0.00,,,-99.99,wx200d/1.3,2013-04-29 07:29:00,
2013-04-29 03:34:00,50.9,37.0,30.06,WNW,297,3.6,3.6,58,0.00,,,-99.99,wx200d/1.3,2013-04-29 07:34:00,
2013-04-29 03:39:00,50.9,37.0,30.06,WSW,239,5.4,5.8,58,0.00,,,-99.99,wx200d/1.3,2013-04-29 07:39:00,
2013-04-29 03:44:00,50.9,37.0,30.06,West,275,4.5,4.5,58,0.00,,,-99.99,wx200d/1.3,2013-04-29 07:44:00,
2013-04-29 03:49:00,50.9,37.0,30.06,West,274,3.6,3.6,59,0.00,,,-99.99,wx200d/1.3,2013-04-29 07:49:00,
2013-04-29 03:54:00,50.9,37.0,30.06,West,276,0.0,4.5,59,0.00,,,-99.99,wx200d/1.3,2013-04-29 07:54:00,
2013-04-29 03:59:00,51.1,37.0,30.06,West,269,3.6,3.6,58,0.00,,,-99.99,wx200d/1.3,2013-04-29 07:59:00,
2013-04-29 04:04:00,50.9,37.0,30.06,West,268,4.0,4.9,57,0.00,,,-99.99,wx200d/1.3,2013-04-29 08:04:00,
2013-04-29 04:09:00,50.9,37.0,30.06,West,271,4.5,4.5,58,0.00,,,-99.99,wx200d/1.3,2013-04-29 08:09:00,
2013-04-29 04:14:00,50.9,37.0,30.06,WNW,287,4.5,4.5,59,0.00,,,-99.99,wx200d/1.3,2013-04-29 08:14:00,
2013-04-29 04:19:00,50.7,36.0,30.06,West,261,4.0,4.0,59,0.00,,,-99.99,wx200d/1.3,2013-04-29 08:19:00,
2013-04-29 04:24:00,50.7,36.0,30.06,West,276,4.0,4.0,59,0.00,,,-99.99,wx200d/1.3,2013-04-29 08:24:00,
2013-04-29 04:29:00,50.7,37.0,30.06,WNW,293,4.5,4.5,60,0.00,,,-99.99,wx200d/1.3,2013-04-29 08:29:00,
2013-04-29 04:34:00,50.5,37.0,30.06,WNW,282,4.0,4.0,61,0.00,,,-99.99,wx200d/1.3,2013-04-29 08:34:00,
2013-04-29 04:39:00,50.5,37.0,30.06,West,281,4.0,4.0,61,0.00,,,-99.99,wx200d/1.3,2013-04-29 08:39:00,
2013-04-29 04:44:00,50.5,37.0,30.06,WSW,251,3.1,3.6,61,0.00,,,-99.99,wx200d/1.3,2013-04-29 08:44:00,
2013-04-29 04:49:00,50.7,37.0,30.06,West,269,3.6,3.6,60,0.00,,,-99.99,wx200d/1.3,2013-04-29 08:49:00,
2013-04-29 04:54:00,50.7,36.0,30.06,West,265,3.6,4.0,59,0.00,,,-99.99,wx200d/1.3,2013-04-29 08:54:00,
2013-04-29 04:59:00,50.5,36.0,30.06,West,263,3.1,4.9,59,0.00,,,-99.99,wx200d/1.3,2013-04-29 08:59:00,
2013-04-29 05:04:00,50.7,37.0,30.06,WNW,286,0.0,5.4,60,0.00,,,-99.99,wx200d/1.3,2013-04-29 09:04:00,
2013-04-29 05:09:00,50.9,37.0,30.06,WSW,257,0.0,4.5,59,0.00,,,-99.99,wx200d/1.3,2013-04-29 09:09:00,
2013-04-29 05:14:00,50.9,37.0,30.06,West,267,2.7,5.8,58,0.00,,,-99.99,wx200d/1.3,2013-04-29 09:14:00,
2013-04-29 05:19:00,50.7,36.0,30.06,West,261,3.1,0.0,57,0.00,,,-99.99,wx200d/1.3,2013-04-29 09:19:00,
2013-04-29 05:24:00,50.7,36.0,30.06,West,279,3.1,0.0,57,0.00,,,-99.99,wx200d/1.3,2013-04-29 09:24:00,
2013-04-29 05:29:00,51.1,37.0,30.06,West,279,0.0,0.0,58,0.00,,,-99.99,wx200d/1.3,2013-04-29 09:29:00,
2013-04-29 05:34:00,51.6,37.0,30.06,West,280,0.0,0.0,58,0.00,,,-99.99,wx200d/1.3,2013-04-29 09:34:00,
2013-04-29 05:39:00,51.4,36.0,30.06,West,279,0.0,0.0,55,0.00,,,-99.99,wx200d/1.3,2013-04-29 09:39:00,
2013-04-29 05:45:00,51.3,36.0,30.06,West,268,3.1,0.0,54,0.00,,,-99.99,wx200d/1.3,2013-04-29 09:45:00,
2013-04-29 05:50:00,50.9,36.0,30.09,West,269,0.0,0.0,54,0.00,,,-99.99,wx200d/1.3,2013-04-29 09:50:00,
2013-04-29 05:55:00,50.9,36.0,30.09,West,279,0.0,0.0,55,0.00,,,-99.99,wx200d/1.3,2013-04-29 09:55:00,
2013-04-29 06:00:00,51.1,36.0,30.09,West,279,0.0,0.0,55,0.00,,,-99.99,wx200d/1.3,2013-04-29 10:00:00,
2013-04-29 06:05:00,51.3,36.0,30.09,West,279,3.1,3.1,54,0.00,,,-99.99,wx200d/1.3,2013-04-29 10:05:00,
2013-04-29 06:10:00,51.3,36.0,30.09,WSW,258,2.7,3.6,54,0.00,,,-99.99,wx200d/1.3,2013-04-29 10:10:00,
2013-04-29 06:15:00,51.1,36.0,30.09,West,273,3.1,3.1,55,0.00,,,-99.99,wx200d/1.3,2013-04-29 10:15:00,
2013-04-29 06:20:00,50.9,37.0,30.09,West,277,4.0,4.0,56,0.00,,,-99.99,wx200d/1.3,2013-04-29 10:20:00,
2013-04-29 06:25:00,50.7,36.0,30.09,West,277,3.6,3.6,58,0.00,,,-99.99,wx200d/1.3,2013-04-29 10:25:00,
2013-04-29 06:30:00,50.7,36.0,30.09,WSW,251,0.0,0.0,58,0.00,,,-99.99,wx200d/1.3,2013-04-29 10:30:00,
2013-04-29 06:35:00,50.9,37.0,30.09,West,261,2.7,0.0,57,0.00,,,-99.99,wx200d/1.3,2013-04-29 10:35:00,
2013-04-29 06:40:00,51.1,37.0,30.09,WSW,257,3.6,4.5,57,0.00,,,-99.99,wx200d/1.3,2013-04-29 10:40:00,
2013-04-29 06:45:00,51.3,37.0,30.09,WSW,242,4.0,4.0,56,0.00,,,-99.99,wx200d/1.3,2013-04-29 10:45:00,
2013-04-29 06:50:00,51.6,36.0,30.09,West,278,3.6,3.6,55,0.00,,,-99.99,wx200d/1.3,2013-04-29 10:50:00,
2013-04-29 06:55:00,51.6,36.0,30.09,West,266,4.5,5.8,54,0.00,,,-99.99,wx200d/1.3,2013-04-29 10:55:00,
2013-04-29 07:00:00,51.8,36.0,30.09,WSW,251,4.0,4.0,54,0.00,,,-99.99,wx200d/1.3,2013-04-29 11:00:00,
2013-04-29 07:05:00,52.2,36.0,30.09,SW,234,2.7,0.0,54,0.00,,,-99.99,wx200d/1.3,2013-04-29 11:05:00,
2013-04-29 07:10:00,52.5,34.0,30.09,WSW,244,4.0,4.0,51,0.00,,,-99.99,wx200d/1.3,2013-04-29 11:10:00,
2013-04-29 07:15:00,52.9,36.0,30.09,West,267,3.1,4.5,50,0.00,,,-99.99,wx200d/1.3,2013-04-29 11:15:00,
2013-04-29 07:20:00,53.1,36.0,30.09,WSW,244,2.7,0.0,49,0.00,,,-99.99,wx200d/1.3,2013-04-29 11:20:00,
2013-04-29 07:25:00,53.2,36.0,30.09,West,269,4.0,0.0,49,0.00,,,-99.99,wx200d/1.3,2013-04-29 11:25:00,
2013-04-29 07:30:00,53.6,34.0,30.09,WNW,299,4.0,0.0,47,0.00,,,-99.99,wx200d/1.3,2013-04-29 11:30:00,
2013-04-29 07:35:00,54.5,36.0,30.09,WSW,252,3.6,3.6,47,0.00,,,-99.99,wx200d/1.3,2013-04-29 11:35:00,
2013-04-29 07:40:00,55.0,34.0,30.09,West,268,3.6,3.6,45,0.00,,,-99.99,wx200d/1.3,2013-04-29 11:40:00,
2013-04-29 07:45:00,56.3,36.0,30.09,West,280,4.0,4.0,43,0.00,,,-99.99,wx200d/1.3,2013-04-29 11:45:00,
2013-04-29 07:50:00,56.8,32.0,30.09,WSW,247,3.6,0.0,39,0.00,,,-99.99,wx200d/1.3,2013-04-29 11:50:00,
2013-04-29 07:55:00,58.3,34.0,30.09,West,266,4.5,4.5,38,0.00,,,-99.99,wx200d/1.3,2013-04-29 11:55:00,
2013-04-29 08:00:00,58.8,32.0,30.09,West,273,4.0,4.5,36,0.00,,,-99.99,wx200d/1.3,2013-04-29 12:00:00,
2013-04-29 08:05:00,58.8,32.0,30.09,WNW,283,4.0,6.7,36,0.00,,,-99.99,wx200d/1.3,2013-04-29 12:05:00,
2013-04-29 08:10:00,59.4,32.0,30.09,WSW,258,4.9,4.9,35,0.00,,,-99.99,wx200d/1.3,2013-04-29 12:10:00,
2013-04-29 08:15:00,60.3,32.0,30.09,West,274,2.7,2.7,34,0.00,,,-99.99,wx200d/1.3,2013-04-29 12:15:00,
2013-04-29 08:20:00,59.7,32.0,30.09,WSW,241,5.4,5.8,34,0.00,,,-99.99,wx200d/1.3,2013-04-29 12:20:00,
2013-04-29 08:26:00,60.1,32.0,30.09,WNW,299,5.4,5.4,34,0.00,,,-99.99,wx200d/1.3,2013-04-29 12:26:00,
2013-04-29 08:31:00,60.3,32.0,30.09,WSW,241,4.0,4.0,34,0.00,,,-99.99,wx200d/1.3,2013-04-29 12:31:00,
2013-04-29 08:36:00,60.1,32.0,30.09,West,279,5.4,0.0,34,0.00,,,-99.99,wx200d/1.3,2013-04-29 12:36:00,
2013-04-29 08:41:00,59.7,32.0,30.09,West,278,4.5,4.9,35,0.00,,,-99.99,wx200d/1.3,2013-04-29 12:41:00,
2013-04-29 08:46:00,59.5,32.0,30.09,WSW,245,4.9,6.7,35,0.00,,,-99.99,wx200d/1.3,2013-04-29 12:46:00,
2013-04-29 08:51:00,59.9,32.0,30.09,WSW,256,5.4,10.1,34,0.00,,,-99.99,wx200d/1.3,2013-04-29 12:51:00,
2013-04-29 08:56:00,61.0,32.0,30.09,WSW,252,6.7,6.7,34,0.00,,,-99.99,wx200d/1.3,2013-04-29 12:56:00,
2013-04-29 09:01:00,62.6,32.0,30.09,West,279,5.4,7.4,31,0.00,,,-99.99,wx200d/1.3,2013-04-29 13:01:00,
2013-04-29 09:06:00,62.2,32.0,30.09,South,171,5.4,5.4,30,0.00,,,-99.99,wx200d/1.3,2013-04-29 13:06:00,
2013-04-29 09:11:00,62.8,32.0,30.09,WSW,238,5.8,8.7,28,0.00,,,-99.99,wx200d/1.3,2013-04-29 13:11:00,
2013-04-29 09:16:00,62.4,32.0,30.09,WNW,287,5.4,6.9,29,0.00,,,-99.99,wx200d/1.3,2013-04-29 13:16:00,
2013-04-29 09:21:00,63.9,32.0,30.09,WSW,247,5.8,5.8,27,0.00,,,-99.99,wx200d/1.3,2013-04-29 13:21:00,
2013-04-29 09:26:00,64.9,32.0,30.09,SSW,192,4.0,0.0,27,0.00,,,-99.99,wx200d/1.3,2013-04-29 13:26:00,
2013-04-29 09:31:00,65.8,32.0,30.09,West,272,6.3,6.3,25,0.00,,,-99.99,wx200d/1.3,2013-04-29 13:31:00,
2013-04-29 09:36:00,66.2,32.0,30.09,West,263,5.8,5.8,24,0.00,,,-99.99,wx200d/1.3,2013-04-29 13:36:00,
2013-04-29 09:41:00,66.2,32.0,30.09,West,277,5.8,5.8,24,0.00,,,-99.99,wx200d/1.3,2013-04-29 13:41:00,
2013-04-29 09:46:00,66.7,32.0,30.09,West,278,4.0,4.5,23,0.00,,,-99.99,wx200d/1.3,2013-04-29 13:46:00,
2013-04-29 09:51:00,65.8,32.0,30.09,WSW,238,8.7,8.7,23,0.00,,,-99.99,wx200d/1.3,2013-04-29 13:51:00,
2013-04-29 09:56:00,66.2,32.0,30.09,West,270,5.4,5.4,23,0.00,,,-99.99,wx200d/1.3,2013-04-29 13:56:00,
2013-04-29 10:01:00,66.9,32.0,30.09,WSW,240,2.7,3.6,23,0.00,,,-99.99,wx200d/1.3,2013-04-29 14:01:00,
2013-04-29 10:06:00,67.3,32.0,30.09,SW,231,6.3,6.3,22,0.00,,,-99.99,wx200d/1.3,2013-04-29 14:06:00,
2013-04-29 10:11:00,67.3,32.0,30.09,West,276,5.4,5.4,22,0.00,,,-99.99,wx200d/1.3,2013-04-29 14:11:00,
2013-04-29 10:16:00,68.2,32.0,30.09,West,280,4.9,6.3,22,0.00,,,-99.99,wx200d/1.3,2013-04-29 14:16:00,
2013-04-29 10:21:00,69.6,32.0,30.09,South,179,3.1,4.5,22,0.00,,,-99.99,wx200d/1.3,2013-04-29 14:21:00,
2013-04-29 10:26:00,67.6,32.0,30.09,West,271,6.9,6.9,22,0.00,,,-99.99,wx200d/1.3,2013-04-29 14:26:00,
2013-04-29 10:32:00,69.3,32.0,30.09,WNW,284,2.7,0.0,22,0.00,,,-99.99,wx200d/1.3,2013-04-29 14:32:00,
2013-04-29 10:38:00,70.9,32.0,30.09,ENE,74,2.7,0.0,19,0.00,,,-99.99,wx200d/1.3,2013-04-29 14:38:00,
2013-04-29 10:43:00,71.1,32.0,30.09,WNW,298,4.0,4.0,16,0.00,,,-99.99,wx200d/1.3,2013-04-29 14:43:00,
2013-04-29 10:48:00,71.8,32.0,30.09,SE,137,4.9,4.9,16,0.00,,,-99.99,wx200d/1.3,2013-04-29 14:48:00,
2013-04-29 10:53:00,71.1,32.0,30.09,West,276,4.0,4.0,16,0.00,,,-99.99,wx200d/1.3,2013-04-29 14:53:00,
2013-04-29 10:58:00,70.2,32.0,30.09,NE,35,3.1,3.1,17,0.00,,,-99.99,wx200d/1.3,2013-04-29 14:58:00,
2013-04-29 11:03:00,71.6,32.0,30.09,SSW,197,4.9,7.4,14,0.00,,,-99.99,wx200d/1.3,2013-04-29 15:03:00,
2013-04-29 11:08:00,72.3,32.0,30.09,West,276,3.1,0.0,14,0.00,,,-99.99,wx200d/1.3,2013-04-29 15:08:00,
2013-04-29 11:13:00,72.9,32.0,30.09,West,269,4.0,4.0,13,0.00,,,-99.99,wx200d/1.3,2013-04-29 15:13:00,
2013-04-29 11:18:00,72.9,32.0,30.09,WSW,251,6.3,6.3,13,0.00,,,-99.99,wx200d/1.3,2013-04-29 15:18:00,
2013-04-29 11:23:00,72.5,32.0,30.09,WNW,282,6.3,9.2,14,0.00,,,-99.99,wx200d/1.3,2013-04-29 15:23:00,
2013-04-29 11:28:00,73.0,32.0,30.09,WSW,246,3.6,5.8,11,0.00,,,-99.99,wx200d/1.3,2013-04-29 15:28:00,
2013-04-29 11:33:00,71.8,32.0,30.09,West,259,4.5,4.5,11,0.00,,,-99.99,wx200d/1.3,2013-04-29 15:33:00,
2013-04-29 11:38:00,72.5,32.0,30.06,SSW,202,7.4,10.1,11,0.00,,,-99.99,wx200d/1.3,2013-04-29 15:38:00,
2013-04-29 11:43:00,72.3,32.0,30.06,South,175,4.0,0.0,11,0.00,,,-99.99,wx200d/1.3,2013-04-29 15:43:00,
2013-04-29 11:48:00,73.0,32.0,30.06,ESE,111,3.6,3.6,11,0.00,,,-99.99,wx200d/1.3,2013-04-29 15:48:00,
2013-04-29 11:53:00,73.6,32.0,30.06,West,267,4.9,6.7,11,0.00,,,-99.99,wx200d/1.3,2013-04-29 15:53:00,
2013-04-29 11:58:00,74.1,32.0,30.06,NE,37,5.8,5.8,11,0.00,,,-99.99,wx200d/1.3,2013-04-29 15:58:00,
2013-04-29 12:03:00,73.6,32.0,30.06,South,186,4.9,4.9,11,0.00,,,-99.99,wx200d/1.3,2013-04-29 16:03:00,
2013-04-29 12:08:00,73.9,32.0,30.06,West,281,3.1,0.0,11,0.00,,,-99.99,wx200d/1.3,2013-04-29 16:08:00,
2013-04-29 12:13:00,75.2,32.0,30.06,West,268,4.0,4.0,10,0.00,,,-99.99,wx200d/1.3,2013-04-29 16:13:00,
2013-04-29 12:18:00,74.8,32.0,30.06,SE,141,2.7,4.5,10,0.00,,,-99.99,wx200d/1.3,2013-04-29 16:18:00,
2013-04-29 12:23:00,74.7,32.0,30.06,SE,144,4.0,4.5,10,0.00,,,-99.99,wx200d/1.3,2013-04-29 16:23:00,
2013-04-29 12:28:00,73.4,32.0,30.06,NE,52,2.7,4.5,11,0.00,,,-99.99,wx200d/1.3,2013-04-29 16:28:00,
2013-04-29 12:33:00,72.0,32.0,30.06,SSE,154,7.4,7.8,11,0.00,,,-99.99,wx200d/1.3,2013-04-29 16:33:00,
2013-04-29 12:38:00,71.2,32.0,30.06,ESE,122,5.8,5.8,11,0.00,,,-99.99,wx200d/1.3,2013-04-29 16:38:00,
2013-04-29 12:43:00,70.9,32.0,30.06,SE,146,6.9,8.3,11,0.00,,,-99.99,wx200d/1.3,2013-04-29 16:43:00,
2013-04-29 12:48:00,70.2,32.0,30.06,SSE,147,6.7,9.2,12,0.00,,,-99.99,wx200d/1.3,2013-04-29 16:48:00,
2013-04-29 12:53:00,69.8,32.0,30.06,SSE,153,6.9,6.9,14,0.00,,,-99.99,wx200d/1.3,2013-04-29 16:53:00,
2013-04-29 12:58:00,69.4,32.0,30.06,SE,135,7.4,7.4,14,0.00,,,-99.99,wx200d/1.3,2013-04-29 16:58:00,
2013-04-29 13:03:00,69.4,32.0,30.06,East,99,6.7,6.7,14,0.00,,,-99.99,wx200d/1.3,2013-04-29 17:03:00,
2013-04-29 13:08:00,69.3,32.0,30.06,SE,133,5.4,5.4,14,0.00,,,-99.99,wx200d/1.3,2013-04-29 17:08:00,
2013-04-29 13:13:00,70.0,32.0,30.06,SE,133,6.3,8.3,14,0.00,,,-99.99,wx200d/1.3,2013-04-29 17:13:00,
2013-04-29 13:18:00,68.9,32.0,30.06,ESE,111,6.3,8.3,15,0.00,,,-99.99,wx200d/1.3,2013-04-29 17:18:00,
2013-04-29 13:23:00,68.9,32.0,30.03,ESE,104,5.8,5.8,14,0.00,,,-99.99,wx200d/1.3,2013-04-29 17:23:00,
2013-04-29 13:29:00,69.4,32.0,30.03,East,88,6.3,9.6,14,0.00,,,-99.99,wx200d/1.3,2013-04-29 17:29:00,
2013-04-29 13:35:00,68.7,32.0,30.03,SE,127,6.7,6.7,15,0.00,,,-99.99,wx200d/1.3,2013-04-29 17:35:00,
2013-04-29 13:40:00,69.1,32.0,30.03,SE,128,6.7,8.7,14,0.00,,,-99.99,wx200d/1.3,2013-04-29 17:40:00,
2013-04-29 13:45:00,68.9,32.0,30.03,East,90,6.7,12.1,14,0.00,,,-99.99,wx200d/1.3,2013-04-29 17:45:00,
2013-04-29 13:50:00,68.5,32.0,30.03,SE,136,9.2,9.2,15,0.00,,,-99.99,wx200d/1.3,2013-04-29 17:50:00,
2013-04-29 13:56:00,69.1,32.0,30.03,ESE,102,6.9,6.9,14,0.00,,,-99.99,wx200d/1.3,2013-04-29 17:56:00,
2013-04-29 14:01:00,68.9,32.0,30.03,ESE,121,5.8,5.8,12,0.00,,,-99.99,wx200d/1.3,2013-04-29 18:01:00,
2013-04-29 14:06:00,68.5,32.0,30.03,East,101,7.8,7.8,12,0.00,,,-99.99,wx200d/1.3,2013-04-29 18:06:00,
2013-04-29 14:11:00,67.5,32.0,30.03,SE,128,5.8,6.3,12,0.00,,,-99.99,wx200d/1.3,2013-04-29 18:11:00,
2013-04-29 14:16:00,67.5,32.0,30.03,SE,145,6.9,6.9,12,0.00,,,-99.99,wx200d/1.3,2013-04-29 18:16:00,
2013-04-29 14:21:00,68.0,32.0,30.03,ESE,104,6.7,6.7,12,0.00,,,-99.99,wx200d/1.3,2013-04-29 18:21:00,
2013-04-29 14:26:00,68.7,32.0,30.03,East,95,7.4,7.4,12,0.00,,,-99.99,wx200d/1.3,2013-04-29 18:26:00,
2013-04-29 14:31:00,68.0,32.0,30.03,ESE,103,6.9,6.9,12,0.00,,,-99.99,wx200d/1.3,2013-04-29 18:31:00,
2013-04-29 14:36:00,67.6,32.0,30.03,SE,132,7.4,9.2,12,0.00,,,-99.99,wx200d/1.3,2013-04-29 18:36:00,
2013-04-29 14:41:00,68.0,32.0,30.03,SE,146,7.8,9.2,12,0.00,,,-99.99,wx200d/1.3,2013-04-29 18:41:00,
2013-04-29 14:46:00,67.3,32.0,30.03,ESE,121,6.9,6.9,12,0.00,,,-99.99,wx200d/1.3,2013-04-29 18:46:00,
2013-04-29 14:51:00,67.5,32.0,30.03,ESE,104,7.8,7.8,12,0.00,,,-99.99,wx200d/1.3,2013-04-29 18:51:00,
2013-04-29 14:56:00,68.2,32.0,30.03,SE,136,4.5,4.5,12,0.00,,,-99.99,wx200d/1.3,2013-04-29 18:56:00,
2013-04-29 15:01:00,68.5,32.0,30.03,SE,129,6.7,6.7,12,0.00,,,-99.99,wx200d/1.3,2013-04-29 19:01:00,
2013-04-29 15:06:00,68.0,32.0,30.03,SE,128,6.7,6.7,12,0.00,,,-99.99,wx200d/1.3,2013-04-29 19:06:00,
2013-04-29 15:11:00,68.2,32.0,30.03,East,83,6.9,6.9,12,0.00,,,-99.99,wx200d/1.3,2013-04-29 19:11:00,
2013-04-29 15:16:00,68.2,32.0,30.03,SSE,150,5.8,6.3,12,0.00,,,-99.99,wx200d/1.3,2013-04-29 19:16:00,
2013-04-29 15:21:00,67.6,32.0,30.03,SE,125,8.3,8.3,12,0.00,,,-99.99,wx200d/1.3,2013-04-29 19:21:00,
2013-04-29 15:26:00,67.5,32.0,30.03,SSE,154,7.8,7.8,12,0.00,,,-99.99,wx200d/1.3,2013-04-29 19:26:00,
2013-04-29 15:31:00,68.0,32.0,30.03,SE,134,6.7,6.7,12,0.00,,,-99.99,wx200d/1.3,2013-04-29 19:31:00,
2013-04-29 15:36:00,67.5,32.0,30.00,SE,142,6.7,7.8,12,0.00,,,-99.99,wx200d/1.3,2013-04-29 19:36:00,
2013-04-29 15:41:00,68.2,32.0,30.00,SE,139,7.4,7.4,12,0.00,,,-99.99,wx200d/1.3,2013-04-29 19:41:00,
2013-04-29 15:46:00,68.2,32.0,30.00,East,100,6.7,6.7,12,0.00,,,-99.99,wx200d/1.3,2013-04-29 19:46:00,
2013-04-29 15:51:00,69.3,32.0,30.00,SE,138,4.0,4.5,12,0.00,,,-99.99,wx200d/1.3,2013-04-29 19:51:00,
2013-04-29 15:56:00,70.2,32.0,30.00,SE,136,2.7,3.1,12,0.00,,,-99.99,wx200d/1.3,2013-04-29 19:56:00,
2013-04-29 16:01:00,70.9,32.0,30.00,West,276,9.2,9.2,11,0.00,,,-99.99,wx200d/1.3,2013-04-29 20:01:00,
2013-04-29 16:06:00,71.1,32.0,30.00,WNW,289,7.8,7.8,11,0.00,,,-99.99,wx200d/1.3,2013-04-29 20:06:00,
2013-04-29 16:11:00,71.8,32.0,30.00,WSW,245,4.5,4.5,11,0.00,,,-99.99,wx200d/1.3,2013-04-29 20:11:00,
2013-04-29 16:16:00,72.0,32.0,30.00,WNW,287,8.3,10.1,11,0.00,,,-99.99,wx200d/1.3,2013-04-29 20:16:00,
2013-04-29 16:21:00,71.2,32.0,30.00,North,7,7.4,8.7,11,0.00,,,-99.99,wx200d/1.3,2013-04-29 20:21:00,
2013-04-29 16:26:00,70.5,32.0,30.00,WSW,258,7.8,7.8,12,0.00,,,-99.99,wx200d/1.3,2013-04-29 20:26:00,
2013-04-29 16:31:00,71.4,32.0,30.00,West,264,5.4,10.5,11,0.00,,,-99.99,wx200d/1.3,2013-04-29 20:31:00,
2013-04-29 16:36:00,71.2,32.0,30.00,West,270,4.0,9.2,11,0.00,,,-99.99,wx200d/1.3,2013-04-29 20:36:00,
2013-04-29 16:41:00,70.3,32.0,30.00,ENE,65,5.4,5.4,12,0.00,,,-99.99,wx200d/1.3,2013-04-29 20:41:00,
2013-04-29 16:46:00,70.3,32.0,30.00,SSW,194,6.7,6.7,12,0.00,,,-99.99,wx200d/1.3,2013-04-29 20:46:00,
2013-04-29 16:51:00,70.2,32.0,30.00,WNW,302,5.4,8.3,12,0.00,,,-99.99,wx200d/1.3,2013-04-29 20:51:00,
2013-04-29 16:56:00,70.5,32.0,30.00,West,278,7.8,7.8,12,0.00,,,-99.99,wx200d/1.3,2013-04-29 20:56:00,
2013-04-29 17:01:00,70.0,32.0,30.00,SW,220,6.7,6.7,12,0.00,,,-99.99,wx200d/1.3,2013-04-29 21:01:00,
2013-04-29 17:06:00,69.3,32.0,30.00,West,268,10.1,11.2,12,0.00,,,-99.99,wx200d/1.3,2013-04-29 21:06:00,
2013-04-29 17:11:00,69.6,32.0,30.00,WSW,252,5.8,6.7,12,0.00,,,-99.99,wx200d/1.3,2013-04-29 21:11:00,
2013-04-29 17:17:00,69.8,32.0,30.00,West,260,6.3,7.4,12,0.00,,,-99.99,wx200d/1.3,2013-04-29 21:17:00,
2013-04-29 17:22:00,69.4,32.0,30.03,WNW,288,7.4,12.1,12,0.00,,,-99.99,wx200d/1.3,2013-04-29 21:22:00,
2013-04-29 17:27:00,69.3,32.0,30.03,West,270,6.9,6.9,12,0.00,,,-99.99,wx200d/1.3,2013-04-29 21:27:00,
2013-04-29 17:32:00,69.1,32.0,30.03,West,275,4.5,7.4,12,0.00,,,-99.99,wx200d/1.3,2013-04-29 21:32:00,
2013-04-29 17:38:00,68.5,32.0,30.03,WSW,258,5.8,5.8,12,0.00,,,-99.99,wx200d/1.3,2013-04-29 21:38:00,
2013-04-29 17:43:00,67.8,32.0,30.03,West,263,8.7,8.7,12,0.00,,,-99.99,wx200d/1.3,2013-04-29 21:43:00,
2013-04-29 17:48:00,67.6,32.0,30.03,NW,322,9.2,10.5,12,0.00,,,-99.99,wx200d/1.3,2013-04-29 21:48:00,
2013-04-29 17:53:00,67.5,32.0,30.03,WNW,291,10.5,10.5,12,0.00,,,-99.99,wx200d/1.3,2013-04-29 21:53:00,
2013-04-29 17:58:00,67.5,32.0,30.03,WNW,284,6.3,6.3,12,0.00,,,-99.99,wx200d/1.3,2013-04-29 21:58:00,
2013-04-29 18:03:00,66.7,32.0,30.03,SW,217,6.9,6.9,12,0.00,,,-99.99,wx200d/1.3,2013-04-29 22:03:00,
2013-04-29 18:08:00,66.2,32.0,30.03,WSW,243,11.2,11.2,12,0.00,,,-99.99,wx200d/1.3,2013-04-29 22:08:00,
2013-04-29 18:13:00,66.4,32.0,30.03,East,91,6.3,9.6,12,0.00,,,-99.99,wx200d/1.3,2013-04-29 22:13:00,
2013-04-29 18:18:00,66.7,32.0,30.03,SW,226,3.6,3.6,12,0.00,,,-99.99,wx200d/1.3,2013-04-29 22:18:00,
2013-04-29 18:23:00,66.6,32.0,30.03,WNW,286,4.5,4.5,12,0.00,,,-99.99,wx200d/1.3,2013-04-29 22:23:00,
2013-04-29 18:28:00,66.2,32.0,30.03,SSW,199,4.5,4.5,12,0.00,,,-99.99,wx200d/1.3,2013-04-29 22:28:00,
2013-04-29 18:33:00,66.2,32.0,30.03,WNW,293,4.5,6.9,12,0.00,,,-99.99,wx200d/1.3,2013-04-29 22:33:00,
2013-04-29 18:38:00,66.2,32.0,30.03,West,269,6.9,6.9,12,0.00,,,-99.99,wx200d/1.3,2013-04-29 22:38:00,
2013-04-29 18:43:00,66.2,32.0,30.03,SSW,202,3.1,0.0,12,0.00,,,-99.99,wx200d/1.3,2013-04-29 22:43:00,
2013-04-29 18:48:00,65.8,32.0,30.03,WNW,292,5.8,5.8,12,0.00,,,-99.99,wx200d/1.3,2013-04-29 22:48:00,
2013-04-29 18:53:00,65.3,32.0,30.03,WSW,255,3.6,0.0,12,0.00,,,-99.99,wx200d/1.3,2013-04-29 22:53:00,
2013-04-29 18:58:00,65.1,32.0,30.03,NW,320,3.6,0.0,13,0.00,,,-99.99,wx200d/1.3,2013-04-29 22:58:00,
2013-04-29 19:03:00,64.8,32.0,30.03,West,277,3.6,5.8,13,0.00,,,-99.99,wx200d/1.3,2013-04-29 23:03:00,
2013-04-29 19:08:00,64.4,32.0,30.03,West,271,2.7,0.0,13,0.00,,,-99.99,wx200d/1.3,2013-04-29 23:08:00,
2013-04-29 19:13:00,64.0,32.0,30.03,WSW,253,4.0,6.7,13,0.00,,,-99.99,wx200d/1.3,2013-04-29 23:13:00,
2013-04-29 19:18:00,63.3,32.0,30.03,WNW,288,4.0,6.9,13,0.00,,,-99.99,wx200d/1.3,2013-04-29 23:18:00,
2013-04-29 19:23:00,63.0,32.0,30.06,WNW,298,6.3,0.0,13,0.00,,,-99.99,wx200d/1.3,2013-04-29 23:23:00,
2013-04-29 19:28:00,62.6,32.0,30.06,West,273,6.7,9.6,13,0.00,,,-99.99,wx200d/1.3,2013-04-29 23:28:00,
2013-04-29 19:34:00,62.1,32.0,30.06,West,279,5.8,7.4,13,0.00,,,-99.99,wx200d/1.3,2013-04-29 23:34:00,
2013-04-29 19:39:00,62.1,32.0,30.06,WSW,255,3.1,0.0,13,0.00,,,-99.99,wx200d/1.3,2013-04-29 23:39:00,
2013-04-29 19:44:00,62.1,32.0,30.06,West,271,5.4,5.4,13,0.00,,,-99.99,wx200d/1.3,2013-04-29 23:44:00,
2013-04-29 19:50:00,61.7,32.0,30.06,West,259,3.6,6.3,11,0.00,,,-99.99,wx200d/1.3,2013-04-29 23:50:00,
2013-04-29 19:56:00,61.3,32.0,30.06,WSW,249,4.0,4.0,11,0.00,,,-99.99,wx200d/1.3,2013-04-29 23:56:00,
2013-04-29 20:01:00,61.2,32.0,30.06,WSW,245,4.5,0.0,11,0.00,,,-99.99,wx200d/1.3,2013-04-30 00:01:00,
2013-04-29 20:06:00,61.2,32.0,30.06,WSW,257,3.1,3.1,11,0.00,,,-99.99,wx200d/1.3,2013-04-30 00:06:00,
2013-04-29 20:12:00,60.8,32.0,30.06,WNW,297,5.4,5.4,11,0.00,,,-99.99,wx200d/1.3,2013-04-30 00:12:00,
2013-04-29 20:17:00,60.4,32.0,30.06,West,273,4.9,4.9,11,0.00,,,-99.99,wx200d/1.3,2013-04-30 00:17:00,
2013-04-29 20:23:00,60.1,32.0,30.06,West,280,4.0,5.4,11,0.00,,,-99.99,wx200d/1.3,2013-04-30 00:23:00,
2013-04-29 20:28:00,59.9,32.0,30.06,West,277,4.0,6.7,12,0.00,,,-99.99,wx200d/1.3,2013-04-30 00:28:00,
2013-04-29 20:33:00,59.7,32.0,30.06,West,266,4.9,6.3,12,0.00,,,-99.99,wx200d/1.3,2013-04-30 00:33:00,
2013-04-29 20:38:00,59.4,32.0,30.06,WNW,294,8.3,8.3,12,0.00,,,-99.99,wx200d/1.3,2013-04-30 00:38:00,
2013-04-29 20:43:00,59.2,32.0,30.06,NNE,14,5.4,6.3,12,0.00,,,-99.99,wx200d/1.3,2013-04-30 00:43:00,
2013-04-29 20:48:00,59.2,32.0,30.06,West,276,5.8,5.8,12,0.00,,,-99.99,wx200d/1.3,2013-04-30 00:48:00,
2013-04-29 20:53:00,59.0,32.0,30.06,West,278,5.4,5.4,12,0.00,,,-99.99,wx200d/1.3,2013-04-30 00:53:00,
2013-04-29 20:58:00,59.0,32.0,30.06,NW,313,4.9,4.9,12,0.00,,,-99.99,wx200d/1.3,2013-04-30 00:58:00,
2013-04-29 21:03:00,58.8,32.0,30.06,WNW,283,4.5,4.5,12,0.00,,,-99.99,wx200d/1.3,2013-04-30 01:03:00,
2013-04-29 21:08:00,58.8,32.0,30.06,SW,226,0.0,0.0,12,0.00,,,-99.99,wx200d/1.3,2013-04-30 01:08:00,
2013-04-29 21:13:00,58.8,32.0,30.06,West,268,0.0,3.1,12,0.00,,,-99.99,wx200d/1.3,2013-04-30 01:13:00,
2013-04-29 21:18:00,58.6,32.0,30.06,West,279,3.1,0.0,12,0.00,,,-99.99,wx200d/1.3,2013-04-30 01:18:00,
2013-04-29 21:24:00,58.5,32.0,30.09,South,180,0.0,3.6,12,0.00,,,-99.99,wx200d/1.3,2013-04-30 01:24:00,
2013-04-29 21:29:00,58.3,32.0,30.09,WNW,285,5.8,5.8,12,0.00,,,-99.99,wx200d/1.3,2013-04-30 01:29:00,
2013-04-29 21:34:00,57.9,32.0,30.09,WSW,237,4.5,6.3,12,0.00,,,-99.99,wx200d/1.3,2013-04-30 01:34:00,
2013-04-29 21:40:00,57.4,32.0,30.09,West,267,6.3,6.3,12,0.00,,,-99.99,wx200d/1.3,2013-04-30 01:40:00,
2013-04-29 21:45:00,57.2,32.0,30.09,West,274,5.8,5.8,12,0.00,,,-99.99,wx200d/1.3,2013-04-30 01:45:00,
2013-04-29 21:50:00,57.0,32.0,30.06,WSW,249,3.6,4.0,12,0.00,,,-99.99,wx200d/1.3,2013-04-30 01:50:00,
2013-04-29 21:55:00,57.0,32.0,30.06,WSW,237,4.9,7.8,12,0.00,,,-99.99,wx200d/1.3,2013-04-30 01:55:00,
2013-04-29 22:00:00,56.7,32.0,30.06,WSW,249,6.3,0.0,12,0.00,,,-99.99,wx200d/1.3,2013-04-30 02:00:00,
2013-04-29 22:05:00,56.7,32.0,30.06,West,267,4.5,4.5,12,0.00,,,-99.99,wx200d/1.3,2013-04-30 02:05:00,
2013-04-29 22:10:00,56.7,32.0,30.06,South,172,4.0,4.5,12,0.00,,,-99.99,wx200d/1.3,2013-04-30 02:10:00,
2013-04-29 22:15:00,56.7,32.0,30.06,WNW,291,2.7,2.7,12,0.00,,,-99.99,wx200d/1.3,2013-04-30 02:15:00,
2013-04-29 22:20:00,56.7,32.0,30.09,West,277,4.0,4.0,12,0.00,,,-99.99,wx200d/1.3,2013-04-30 02:20:00,
2013-04-29 22:25:00,56.7,32.0,30.09,SW,233,0.0,4.9,14,0.00,,,-99.99,wx200d/1.3,2013-04-30 02:25:00,
2013-04-29 22:30:00,56.3,32.0,30.09,West,275,2.7,4.0,14,0.00,,,-99.99,wx200d/1.3,2013-04-30 02:30:00,
2013-04-29 22:36:00,56.1,32.0,30.09,WSW,238,4.5,4.5,15,0.00,,,-99.99,wx200d/1.3,2013-04-30 02:36:00,
2013-04-29 22:42:00,56.1,32.0,30.09,West,271,4.5,4.5,15,0.00,,,-99.99,wx200d/1.3,2013-04-30 02:42:00,
2013-04-29 22:47:00,55.8,32.0,30.09,West,269,4.0,4.0,15,0.00,,,-99.99,wx200d/1.3,2013-04-30 02:47:00,
2013-04-29 22:52:00,55.6,32.0,30.09,West,266,4.9,6.3,15,0.00,,,-99.99,wx200d/1.3,2013-04-30 02:52:00,
2013-04-29 22:57:00,55.6,32.0,30.09,SW,233,3.6,3.6,15,0.00,,,-99.99,wx200d/1.3,2013-04-30 02:57:00,
2013-04-29 23:03:00,55.2,32.0,30.09,WSW,256,4.0,4.0,15,0.00,,,-99.99,wx200d/1.3,2013-04-30 03:03:00,
2013-04-29 23:08:00,55.2,32.0,30.09,West,265,4.5,4.9,15,0.00,,,-99.99,wx200d/1.3,2013-04-30 03:08:00,
2013-04-29 23:13:00,55.2,32.0,30.09,WNW,286,5.4,5.8,15,0.00,,,-99.99,wx200d/1.3,2013-04-30 03:13:00,
2013-04-29 23:18:00,55.2,32.0,30.09,West,275,3.6,0.0,15,0.00,,,-99.99,wx200d/1.3,2013-04-30 03:18:00,
2013-04-29 23:23:00,55.4,32.0,30.09,SW,216,4.5,4.5,15,0.00,,,-99.99,wx200d/1.3,2013-04-30 03:23:00,
2013-04-29 23:29:00,55.2,32.0,30.09,West,268,2.7,3.6,15,0.00,,,-99.99,wx200d/1.3,2013-04-30 03:29:00,
2013-04-29 23:34:00,55.4,32.0,30.09,WSW,252,4.9,4.9,15,0.00,,,-99.99,wx200d/1.3,2013-04-30 03:34:00,
2013-04-29 23:39:00,55.4,32.0,30.09,WNW,291,4.9,4.9,15,0.00,,,-99.99,wx200d/1.3,2013-04-30 03:39:00,
2013-04-29 23:44:00,55.4,32.0,30.09,WSW,248,3.6,0.0,15,0.00,,,-99.99,wx200d/1.3,2013-04-30 03:44:00,
2013-04-29 23:49:00,55.2,32.0,30.09,West,271,5.4,5.4,15,0.00,,,-99.99,wx200d/1.3,2013-04-30 03:49:00,
2013-04-29 23:54:00,55.2,32.0,30.09,WSW,252,4.5,4.9,15,0.00,,,-99.99,wx200d/1.3,2013-04-30 03:54:00,
2013-04-29 23:59:00,55.2,32.0,30.09,West,269,4.5,4.5,15,0.00,,,-99.99,wx200d/1.3,2013-04-30 03:59:00,